Regional Weather Roundup
Issued by NWS Wakefield, VA

Home | Current Version | Previous Version | Graphics & Text | Print | Product List | Glossary Off
Versions: 1 2 3 4 5 6 7 8 9 10 11 12 13 14 15 16 17 18 19 20 21 22 23 24 25 26 27 28 29 30 31 32 33 34 35 36 37 38 39 40 41 42 43 44 45 46 47 48 49 50

000
ASUS41 KAKQ 060715
RWRAKQ

REGIONAL WEATHER ROUNDUP
NATIONAL WEATHER SERVICE WAKEFIELD VA
300 AM EDT MON JUL 06 2015

Note: "fair" indicates few or no clouds below 12,000 feet with no
significant weather and/or obstructions to visibility. * = Denotes
station may not report precipitation (e.g., rain,snow,etc.),
thunder or fog.

VAZ042-051-052>054-056-060800-
NORTHERN VIRGINIA

CITY           SKY/WX    TMP DP  RH WIND       PRES   REMARKS
WASH NATIONAL  CLOUDY    77  72  84 CALM      30.12S
DULLES         CLOUDY    72  72 100 CALM      30.11F
FORT BELVOIR   CLOUDY    72  70  94 CALM      30.10F
QUANTICO       CLOUDY    76  71  85 SE7       30.10F
FREDERICKSBRG* DRIZZLE   75  75 100 CALM      30.09F
STAFFORD*      LGT RAIN  72  71  95 CALM      30.14F
WARRENTON      DRIZZLE   73  73 100 CALM      30.10F
CULPEPER*      RAIN      69  69 100 CALM      30.11F
MANASSAS*      CLOUDY    73  73 100 CALM        N/A
LEESBURG*      CLOUDY    72  72 100 CALM      30.12F FOG
WINCHESTER     LGT RAIN  70  70 100 CALM      30.10F
FRONT ROYAL*   FAIR      68  68 100 CALM      30.09F
LURAY*         CLOUDY    70  70 100 CALM      30.11S FOG
$$

VAZ048-049-060>072-079>083-060800-
CENTRAL AND SOUTH CENTRAL VIRGINIA

CITY           SKY/WX    TMP DP  RH WIND       PRES   REMARKS
RICHMOND       CLOUDY    72  70  93 CALM      30.08F
CHESTERFIELD*  NOT AVBL
PETERSBURG*    CLOUDY    72  72 100 CALM      30.09F
HANOVER        CLOUDY    72  70  93 CALM      30.10F
TAPPAHANNOCK*  CLOUDY    73  71  92 CALM      30.10F FOG
QUINTON*       NOT AVBL
CHARLOTTSVILLE CLOUDY    71  69  93 CALM      30.10F
GORDONSVILLE*  CLOUDY    70  70 100 CALM      30.10S FOG
ORANGE*        CLOUDY    72  70  94 CALM      30.12F FOG
LOUISA*        CLOUDY    72  70  94 CALM      30.09F FOG
BUMPASS*       CLOUDY    71  70  98 CALM      30.10F
FARMVILLE*     CLOUDY    71  71 100 CALM      30.08S
CREWE*         CLOUDY    70  69  95 CALM      30.09S
FORT PICKETT*  CLOUDY    69  68  97 CALM      30.10S
CHASE CITY*    CLOUDY    71  71 100 CALM      30.10R
CLARKSVILLE*   FAIR      70  70 100 CALM      30.09S
SOUTH HILL*    CLOUDY    68  68  99 CALM      30.15F
LAWRENCEVILLE* NOT AVBL
EMPORIA*         N/A     70  70 100 CALM      30.11S
$$

VAZ088>098-060800-
SOUTHEAST VIRGINIA

CITY           SKY/WX    TMP DP  RH WIND       PRES   REMARKS
NORFOLK        CLOUDY    73  70  90 CALM      30.10S
VIRGINIA BEACH CLOUDY    75  70  84 E3        30.09F
NORFOLK NAVAL  CLOUDY    72  70  93 CALM      30.11F
WEST POINT*    CLOUDY    76  73  89 CALM      30.11F
SALUDA*        FAIR      73  71  95 S3        30.10F
NEWPORT NEWS   LGT RAIN  72  71  97 CALM      30.09F
LANGLEY AFB    CLOUDY    72  70  94 CALM      30.07F
FORT EUSTIS    CLOUDY    73 N/A N/A SE2       30.07F
WILLIAMSBURG*  CLOUDY    73  73 100 CALM      30.09F
HR EXEC AP*    FAIR      72  66  83 CALM      30.12F
FRANKLIN*      CLOUDY    71  70  98 E5        30.10F
WAKEFIELD      CLOUDY    72  70  93 CALM      30.09F
$$

VAZ020-022-025-037-045-060800-
WEST CENTRAL AND SOUTHWEST VIRGINIA

CITY           SKY/WX    TMP DP  RH WIND       PRES   REMARKS
STAUNTON*      CLOUDY    72  70  95 CALM      30.12F FOG
WAYNESBORO*    CLOUDY    68  68  99 S6        30.12S
HOT SPRINGS VA DRZL/FOG  65  65 100 E5        30.18S VSB<1/4
LYNCHBURG      CLOUDY    69  68  96 SE3       30.11S
DANVILLE       MOCLDY    70  68  93 E3        30.09R
SOUTH BOSTON*  CLOUDY    70  69  96 MISG      30.09S
MARTINSVILLE   CLOUDY    70  70 100 CALM      30.10S FOG
ROANOKE        CLOUDY    69  69 100 SE9       30.10S
BLACKSBURG     MOCLDY    66  66 100 CALM      30.14S
DUBLIN*        FOG       66  66 100 CALM      30.12S VSB 1/2
MARION*        CLOUDY    67  65  95 SW3       30.15S
HILLSVILLE*    CLOUDY    65  64  99 CALM      30.12S
RICHLANDS*     FOG       65  65 100 CALM      30.12S VSB 1/4
WISE*          DRIZZLE   64  64 100 SW6       30.13F
ABINGDON*      DRIZZLE   67  67 100 SW6       30.11S
$$

MDZ021>025-VAZ099-100-060800-
SOUTHERN MARYLAND AND THE DELMARVA PENINSULA

CITY           SKY/WX    TMP DP  RH WIND       PRES   REMARKS
PATUXENT RIVER CLOUDY    75  72  90 SW3       30.11R
BAY BRIDGE APT   N/A     73  70  88 SE5       30.12S
LEONARDTOWN    CLOUDY    72  70  94 CALM      30.13S
DOVER          CLOUDY    72  72 100 NE3       30.11S
GEORGETOWN     CLOUDY    72  70  93 CALM      30.14R
EASTON         DRIZZLE  N/A N/A N/A CALM      30.16S
CAMBRIDGE      CLOUDY    73  70  88 E3        30.12S
SALISBURY      LGT RAIN  72  70  93 CALM      30.13R
OCEAN CITY     CLOUDY    75  72  90 SE3       30.13R
WALLOPS ISLAND RAIN      73  72  96 S6        30.12F
ACCOMACK*      CLOUDY    72  72 100 S3        30.12R
$$

NCZ012>017-030>032-060800-
NORTH CENTRAL AND EASTERN NORTH CAROLINA

CITY           SKY/WX    TMP DP  RH WIND       PRES   REMARKS
ROANOKE RAPIDS FAIR      68  68 100 CALM      30.11S
RALEIGH        MOCLDY    70  69  97 SE6       30.10R
ELIZABETH CITY CLOUDY    74  70  87 NE5       30.12S FOG
AHOSKIE*       MOCLDY   N/A N/A N/A CALM      30.11F
EDENTON*       MOCLDY    73  70  91 NE3       30.12S
CURRITUCK*     MOCLDY    73  69  88 NW3       30.12S
KILL DEVIL HLS MOCLDY    78  74  87 SW5       30.11R
MANTEO         MOCLDY    77  75  92 SW8       30.12S
CAPE HATTERAS  PTCLDY    76  75  97 SW7       30.13F
TARBORO*         N/A     72  70  93 CALM      30.12S
GOLDSBORO      PTCLDY    75  73  93 E3        30.09
WASHINGTON     MOCLDY    75  72  90 CALM      30.12S
GREENVILLE     PTCLDY    73  73 100 SE3       30.12F
NEW BERN       PTCLDY    76  73  91 S5        30.13S
WILMINGTON     PTCLDY    78  75  90 S6        30.12S
$$

VAZ048-060800-
ELSEWHERE

CITY           SKY/WX    TMP DP  RH WIND       PRES   REMARKS
HARRISBURG PA  CLOUDY    70  67  90 CALM      30.12F
BALTIMORE      LGT RAIN  74  72  93 E5        30.11F
ANNAPOLIS      CLOUDY    76  72  87 SE8       30.11S
ANDREWS AFB    CLOUDY    73  72  99 E3        30.11F
PHILADELPHIA   CLOUDY    73  68  84 CALM      30.15S
HENDERSON NC   PTCLDY    69  66  90 CALM      30.10S
GREENSBORO     MOCLDY    71  69  93 S9        30.08S
ROCKY MOUNT    PTCLDY    71  70  96 CALM      30.11S
$$

VAZ100-060800-
MARINE

STATION/POSITION TIME  TEMP    WIND        PRES    WAVE   SWELL
                       AIR SEA DIR/SP/G            HT/PER HT/PER
                 (UTC) (F)     (DEG/KT/KT) (MB)    (FT/S) (FT/S)
BRANDYWINE LGT   0600   73 73  160/  7/  8 1020.6R
CAPE MAY NJ      0600   72 78  130/  4/  5 1020.1S
LEWES DE         0600   74 74  170/  4/  7 1020.1S
15NM E FENWICK I 0650   75 74              1020.0F   3/ 6
OCEAN-CITY-INLET 0600   75 74  120/  5/  6 1019.6F
WACHAPREAGUE VA  0600   74 81  190/  2/  3 1019.7F
THOMAS POINT MD  0700   75     130/  8       N/A
GOOSES REEF MD   0700   76 78  120/  8/ 10 1020.5R
COVE POINT MD    0600   76     170/ 10/ 11 1020.1F
SOLOMONS ISLAND  0600      81                N/A
BISHOPS HEAD MD  0600   76     120/  8/  9 1019.5F
PINEY POINT MD   0600          160/  9/ 11   N/A
CAMBRIDGE MD     0600   74 79   CALM  /  3 1019.7F
LEWISETTA VA     0600   76 80  180/  6/  7 1019.2S
RAPPAHANNOCK LGT 0600          110/  8/  9 1019.8F
STINGRAY PT      0700   76 80  190/  6/  8 1019.2F   1
YORK RVR RNG VA  0600   76     240/  9/ 11 1019.3R
YORKTOWN VA      0600   73 80  240/  5/  6 1019.5R
JAMESTOWN VA     0700   74 82  120/  4/  6   N/A
DOMINION TERM VA 0600   74     270/ 10/ 13 1019.8R
KIPTOPEKE VA     0600      82   90/  5/  6   N/A
CHES BAY BRIDGE  0600   76 75   CALM  /  4 1019.2F
CAPE HENRY VA    0600   74     120/  1/  2   N/A
CHESAPEAKE LGHT  0600   76     350/  7/  8 1020.3R
WILLOUBY STN VA  0600   73     280/ 13/ 14 1020.6R
CAPE HENRY BUOY  0628      78                N/A     2/ 5
1ST LANDING BUOY 0700      77              1018.9F   1/ 3
CAPE CHARLES BUO 0626      76                N/A     2/ 9   2/ 9
OFFSHORE WE BUOY 0611      77                N/A     2/14   2/14
64NM E OF VA BCH 0650   78 77  210/  8/ 10 1019.4S   3/ 8   2/ 8
DUCK PIER NC     0600   79 76  240/  8/ 13   N/A
44100 DUCK FRF   0624      79                N/A     2/14
44056 DUCK FRF   0611      78                N/A     2/14   2/14
OREGON INLET NC  0600   80 83  220/ 13/ 16 1019.7R
HATTERAS NC      0600   78 80  210/  6/  9 1020.1R
DIAMOND SHLS NC  0650   80 81  230/ 12/ 14 1020.1F   3/ 9   2/ 9
CAPE LOOKOUT NC  0700   79     210/  8/ 11 1020.2S
$$



USA.gov is the U.S. government's official web portal to all federal, state and local government web resources and services.